Regional Weather Roundup
Issued by NWS Green Bay, WI

Home | Current Version | Previous Version | Text Only | Print | Product List | Glossary On
Versions: 1 2 3 4 5 6 7 8 9 10 11 12 13 14 15 16 17 18 19 20 21 22 23 24 25 26 27 28 29 30 31 32 33 34 35 36 37 38 39 40 41 42 43 44 45 46 47 48 49 50
000
ASUS43 KGRB 220510
RWRGRB

NORTH-CENTRAL AND NORTHEAST WISCONSIN REGIONAL WEATHER ROUNDUP
NATIONAL WEATHER SERVICE GREEN BAY WI
1200 AM CDT TUE JUL 22 2014

WIZ005-009-010>012-018-019-220600-
NORTH CENTRAL WISCONSIN

CITY           SKY/WX    TMP DP  RH WIND       PRES   REMARKS
IRONWOOD       CLOUDY    79  70  73 S7        29.84F
MANITOWISH WTR MOCLDY    74  69  82 S10       29.92F
ARBOR VITAE    MOCLDY    77  71  81 S14       29.93F
EAGLE RIVER    MOCLDY    73  66  79 S7        29.95F
LAND O LAKES   PTCLDY    74  68  82 S9        29.95F
RHINELANDER    CLOUDY    75  67  76 S12       29.97F
PHILLIPS       CLOUDY    75  68  80 S13       29.92S
ANTIGO         CLOUDY    72  68  85 S10       30.00F
TOMAHAWK       PTCLDY    73  66  81 CALM      29.97S
MERRILL        PTCLDY    75  68  78 S5        29.96F
$$

WIZ013-073-220600-
NORTHEAST WISCONSIN

CITY           SKY/WX    TMP DP  RH WIND       PRES   REMARKS
IRON MOUNTAIN  CLEAR     72  66  81 SE7       29.97S
MARINETTE      CLEAR     70  63  78 SW6       29.97S
OCONTO         CLEAR     71  66  85 S3        29.99R
$$

WIZ017-030-035>037-045-220600-
CENTRAL WISCONSIN

CITY           SKY/WX    TMP DP  RH WIND       PRES   REMARKS
MEDFORD        PTCLDY    71  67  88 S9        29.95F
WAUSAU         PTCLDY    75  67  76 SE9       29.95F
MOSINEE        PTCLDY    72  68  88 S10       29.98F
MARSHFIELD     CLEAR     73  67  81 S9        29.96F
WISC RAPIDS    CLEAR     75  68  78 S7        29.98F
STEVENS POINT  CLEAR     73  66  78 S7        29.98F
WAUPACA        PTCLDY    74  69  82 CALM      29.99R
SHAWANO        CLEAR     74  68  79 S3        29.99R
CLINTONVILLE   PTCLDY    72  66  83 S3        29.99R
$$

WIZ038-039-048-051-220600-
FOX VALLEY

CITY           SKY/WX    TMP DP  RH WIND       PRES   REMARKS
NWS GREEN BAY  CLEAR     72  65  78 S6        30.00R
APPLETON       CLEAR     73  64  73 S8        30.01R
OSHKOSH        CLEAR     74  68  81 S12       29.99S
FOND DU LAC    CLEAR     75  67  76 S14       30.00S
$$

WIZ022-050-052-220600-
EAST CENTRAL WISCONSIN

CITY           SKY/WX    TMP DP  RH WIND       PRES   REMARKS
STURGEON BAY   CLEAR     70  61  73 S9        30.00S
MANITOWOC      CLEAR     66  62  87 S3        30.01F
SHEBOYGAN      CLEAR     67  62  84 S5        30.01F
$$

LMZ563-521-522-541>543-220600-
LAKESHORE

STATION/POSITION TIME  TEMP    WIND        PRES    VSBY  WAVE
                       AIR SEA DIR/SP/G                  HT/PER
                 (UTC) (F)     (DEG/KT/KT) (MB)    (MI)  (FT/S)
SHEBOYGAN LKSHOR 0500   69     180/ 17/ 17 1016.2F
KEWAUNEE LKSHORE 0500   59     180/ 10/ 11 1016.6S
NORTHPORT PIER   0500   69     160/  5/ 10 1015.6S
N MID LAKE BUOY  0500   62 56  200/ 12/ 12 1015.4F         2/ 5
CHAMBERS ISLAND  0500   74     160/  7/ 12 1014.9F
MENOMINEE LKSHOR 0500   72     180/ 10/ 12 1015.8R
$$



USA.gov is the U.S. government's official web portal to all federal, state and local government web resources and services.